Flag for Germany

Past Weather in Unna, North Rhine-Westphalia, Germany — Yesterday and Last 2 Weeks

Now
45 °F

Clear.


Feels Like: 41 °F
Forecast: 58 / 44 °F
Wind: 7 mph from South

Location: Dortmund / Wickede
Current Time: Oct 20, 2020 at 12:10:18 am
Latest Report: Oct 19, 2020 at 10:20 pm
Visibility: 10 mi
Pressure30.07 "Hg
Humidity: 81%
Dew Point: 39 °F
Location of UnnaLocation

Past Weather in Unna — Graph

°F

Unna Temperature Yesterday

Maximum temperature yesterday: 54 °F (at 2:20 pm)
Minimum temperature yesterday: 45 °F (at 10:20 pm)
Average temperature yesterday: 50 °F

High & Low Weather Summary for the Past Weeks

 TemperatureHumidityPressure
High63 °F (Oct 8, 3:20 pm)100% (Oct 8, 11:50 pm)30.18 "Hg (Oct 8, 11:50 pm)
Low41 °F (Oct 11, 4:50 am)55% (Oct 12, 3:50 pm)29.47 "Hg (Oct 4, 10:20 pm)
Average50 °F85%29.98 "Hg
* Reported Oct 4 10:20 pm — Oct 19 10:20 pm, Unna. Weather by CustomWeather, © 2020

Note: Actual official high and low records may vary slightly from our data, if they occured in-between our weather recording intervals... More about our weather records

Unna Weather History for the Previous 24 Hours

Scroll right to see more
 ConditionsComfort  
Time TempWeatherWind HumidityBarometerVisibility
10:20 pm
Mon, Oct 19
45 °FClear.7 mph81%30.07 "Hg10 mi
9:20 pm46 °FClear.7 mph82%30.07 "Hg10 mi
8:20 pm48 °FClear.6 mph87%30.09 "Hg10 mi
7:50 pm50 °FClear.7 mph82%30.09 "Hg10 mi
7:20 pm48 °FClear.6 mph87%30.09 "Hg10 mi
6:50 pm50 °FClear.5 mph82%30.09 "Hg10 mi
6:20 pm52 °FSunny.3 mph77%30.09 "Hg10 mi
5:50 pm54 °FSunny.5 mph72%30.09 "Hg10 mi
5:20 pm54 °FPassing clouds.3 mph72%30.12 "HgN/A
4:50 pm54 °FPassing clouds.5 mph72%30.12 "HgN/A
4:20 pm54 °FPassing clouds.6 mph72%30.12 "HgN/A
3:50 pm54 °FPassing clouds.7 mph72%30.12 "HgN/A
3:20 pm54 °FPassing clouds.5 mph72%30.12 "HgN/A
2:50 pm54 °FBroken clouds.6 mph72%30.15 "HgN/A
2:20 pm54 °FSunny.7 mph72%30.15 "Hg10 mi
1:50 pm52 °FSunny.7 mph77%30.15 "Hg10 mi
1:20 pm52 °FPartly sunny.5 mph82%30.18 "HgN/A
12:50 pm50 °FPartly sunny.3 mph88%30.18 "Hg6 mi
10:20 am50 °FPartly sunny.8 mph88%30.18 "HgN/A
9:50 am48 °FScattered clouds.7 mph94%30.18 "HgN/A
9:20 am48 °FScattered clouds.6 mph94%30.18 "Hg5 mi
8:50 am46 °FScattered clouds.5 mph93%30.18 "Hg4 mi
7:50 am48 °FPassing clouds.6 mph94%30.15 "Hg4 mi
7:20 am48 °FPassing clouds.6 mph94%30.15 "Hg4 mi
6:50 am48 °FMostly cloudy.6 mph94%30.15 "Hg5 mi
6:20 am48 °FLow clouds.6 mph94%30.18 "Hg4 mi
5:50 am48 °FPassing clouds.7 mph94%30.18 "Hg4 mi
5:20 am48 °FPassing clouds.6 mph94%30.18 "Hg4 mi
4:50 am48 °FMostly cloudy.6 mph94%30.18 "Hg3 mi
4:20 am48 °FMostly cloudy.5 mph94%30.18 "Hg3 mi
3:50 am48 °FMostly cloudy.7 mph94%30.18 "Hg3 mi
3:20 am48 °FMostly cloudy.7 mph94%30.18 "Hg3 mi
2:50 am48 °FMostly cloudy.7 mph94%30.18 "Hg3 mi
1:50 am48 °FOvercast.7 mph94%30.18 "Hg3 mi
1:20 am48 °FOvercast.6 mph94%30.18 "Hg3 mi
12:50 am48 °FOvercast.7 mph94%30.18 "Hg3 mi
12:20 am48 °FMostly cloudy.7 mph94%30.18 "Hg4 mi
Weather by CustomWeather, © 2020

See weather overview